Regional Weather Roundup
Issued by NWS

Home | Current Version | Previous Version | Text Only | Print | Product List | Glossary On
Versions: 1 2 3 4 5 6 7 8 9 10 11 12 13 14 15 16 17 18 19 20 21 22 23 24 25 26 27 28 29 30 31 32 33 34 35 36 37 38 39 40 41 42 43 44 45 46 47 48 49 50
000
ASUS45 KREV 270610
RWRNV
NEVADA REGIONAL WEATHER ROUNDUP
NATIONAL WEATHER SERVICE RENO NV
1100 PM PDT SUN APR 26 2015

NOTE: "FAIR" INDICATES FEW OR NO CLOUDS BELOW 12,000 FEET WITH NO
SIGNIFICANT WEATHER AND/OR OBSTRUCTIONS TO VISIBILITY.

NVZ001-003-004-270700-
WESTERN NEVADA

CITY           SKY/WX    TMP DP  RH WIND       PRES   REMARKS
RENO           PTCLDY    53  29  39 CALM      30.23R
6HR MIN TEMP:  51; 6HR MAX TEMP:  62;

CARSON CITY    FAIR      48  27  43 S3        30.24R
MINDEN         FAIR      39  32  75 NW3       30.25
PYRAMID LAKE     N/A     54 N/A N/A W5          N/A
FALLON         CLEAR     49  36  61 CALM      30.22S
6HR MIN TEMP:  47; 6HR MAX TEMP:  61;

LOVELOCK       PTCLDY    46  37  71 NW7       30.22F
6HR MIN TEMP:  45; 6HR MAX TEMP:  61;

HAWTHORNE      CLEAR     50  27  40 CALM      30.24S
$$

NVZ002-CAZ072-073-270700-
NORTHERN AND CENTRAL SIERRA

CITY           SKY/WX    TMP DP  RH WIND       PRES   REMARKS
S. LAKE TAHOE  CLEAR     38  29  70 CALM      30.24R
6HR MIN TEMP:  37; 6HR MAX TEMP:  56;

TRUCKEE        CLEAR     36  30  80 S3        30.26R
SQUAW VLY 8000   N/A     37  27  65 NE12        N/A
BLUE CANYON    CLEAR     51  26  37 N5        30.20F
MAMMOTH LAKES  FAIR      41  21  45 W5        30.31S
BRIDGEPORT     FAIR      35  23  61 CALM      30.26R
$$

NVZ030-031-036-270700-
NORTHERN NEVADA

CITY           SKY/WX    TMP DP  RH WIND       PRES   REMARKS
ELKO           CLEAR     38  23  55 CALM      30.24R
6HR MIN TEMP:  37; 6HR MAX TEMP:  52;

WINNEMUCCA     PTCLDY    40  34  79 S7        30.24R
6HR MIN TEMP:  39; 6HR MAX TEMP:  56;

WENDOVER       CLEAR     48  16  27 NW17G29   30.18R
$$

NVZ035-037-270700-
CENTRAL NEVADA

CITY           SKY/WX    TMP DP  RH WIND       PRES   REMARKS
ELY            CLEAR     33  19  56 CALM      30.21R
6HR MIN TEMP:  30; 6HR MAX TEMP:  49;

EUREKA           N/A     30  19  63 CALM      30.24S
6HR MIN TEMP:  30; 6HR MAX TEMP:  50;

$$

NVZ013-014-270700-
SOUTH CENTRAL NEVADA

CITY           SKY/WX    TMP DP  RH WIND       PRES   REMARKS
TONOPAH        CLEAR     44  20  38 N12       30.20R
6HR MIN TEMP:  44; 6HR MAX TEMP:  61;

$$

NVZ017-020-022-270700-
SOUTHERN NEVADA

CITY           SKY/WX    TMP DP  RH WIND       PRES   REMARKS
LAS VEGAS      PTCLDY    65  18  16 NW14      29.96R
6HR MIN TEMP:  65; 6HR MAX TEMP:  74;

N. LAS VEGAS   PTCLDY    64  16  15 N13       29.99S
6HR MIN TEMP:  64; 6HR MAX TEMP:  74;

NELLIS AFB     CLEAR     65  22  19 N12       29.99R
6HR MIN TEMP:  65; 6HR MAX TEMP:  72;

HENDERSON      PTCLDY    62  23  22 N10       30.02R
6HR MIN TEMP:  62; 6HR MAX TEMP:  72;

MERCURY        PTCLDY    57  15  19 NE15      30.07R
6HR MIN TEMP:  57; 6HR MAX TEMP:  70;

$$


USA.gov is the U.S. government's official web portal to all federal, state and local government web resources and services.